User: anonymous   Login
Location: Unspecified
(0.0000°N, 0.0000°E)
Time: 23:03:53
(UTC+00:00)
Language:

STARLINK-5320 - Orbit

View from above orbital plane
View from above orbital plane
View from above satellite
View from above satellite

Ground track
Ground track

The orbit is defined by the following mean orbital elements,

1 55289U          26145.37422860 +.00000000 +00000-0 -10984-4 0 00009
2 55289  69.9990 191.1912 0003572 266.9464  93.1287 14.98330687    00
Epoch (UTC): 25 May 2026 08:58:53
Eccentricity: 0.0003572
inclination: 69.9990°
perigee height: 570 km
apogee height: 575 km
right ascension of ascending node: 191.1912°
argument of perigee: 266.9464°
revolutions per day: 14.98330687
mean anomaly at epoch: 93.1287°

The dashed part of the orbit path shows where the satellite is in the earth's shadow,  

DLR